Regional Weather Roundup
Issued by NWS

Home | Current Version | Previous Version | Text Only | Print | Product List | Glossary On
Versions: 1 2 3 4 5 6 7 8 9 10 11 12 13 14 15 16 17 18 19 20 21 22 23 24 25 26 27 28 29 30 31 32 33 34 35 36 37 38 39 40 41 42 43 44 45 46 47 48 49 50
000
ASUS43 KOAX 200010
RWRNE

WEATHER ROUNDUP FOR NEBRASKA
NATIONAL WEATHER SERVICE OMAHA NE
700 PM CDT SUN APR 19 2015

NOTES: SATELLITE DATA IS BEING USED TO AUGMENT CLOUD COVER ABOVE
       12000 FEET.
       "FAIR" INDICATES FEW OR NO CLOUDS BELOW 12,000 FEET WITH NO
       SIGNIFICANT WEATHER AND/OR OBSTRUCTIONS TO VISIBILITY.

  * THESE STATIONS DO NOT REPORT WEATHER SUCH AS RAIN...SNOW OR FOG.

NEZ001>004-019>022-054>056-200100-
NEBRASKA PANHANDLE

CITY           SKY/WX    TMP DP  RH WIND       PRES   REMARKS
SCOTTSBLUFF    MOSUNNY   50  20  30 NW23G32   30.01F
6HR MIN TEMP:  47; 6HR MAX TEMP:  53;

ALLIANCE       PTSUNNY   50  20  30 NW25G32   29.97S
6HR MIN TEMP:  47; 6HR MAX TEMP:  52;

CHADRON        CLOUDY    53  21  28 NW14G25   29.98F
6HR MIN TEMP:  48; 6HR MAX TEMP:  54;

KIMBALL        PTSUNNY   46  19  33 NW25      30.00F
SIDNEY         MOSUNNY   45  21  38 NW23G37   30.01S
6HR MIN TEMP:  43; 6HR MAX TEMP:  51;

$$

NEZ057>060-069>072-079>082-200100-
SOUTHWEST NEBRASKA

CITY           SKY/WX    TMP DP  RH WIND       PRES   REMARKS
NORTH PLATTE   PTSUNNY   50  24  36 N23G31    29.93S
6HR MIN TEMP:  49; 6HR MAX TEMP:  54;

IMPERIAL       CLOUDY    50  23  34 N20       29.96S
6HR MIN TEMP:  48; 6HR MAX TEMP:  52;

LEXINGTON      MOSUNNY   51  32  48 N20G28    29.90S
MCCOOK         PTSUNNY   53  25  33 N18G30    29.93R
6HR MIN TEMP:  53; 6HR MAX TEMP:  58;

OGALLALA       PTSUNNY   52  23  32 NW24      29.96S
$$

NEZ005>010-023>029-035>040-094-200100-
NORTH CENTRAL NEBRASKA

CITY           SKY/WX    TMP DP  RH WIND       PRES   REMARKS
VALENTINE      MOSUNNY   50  27  40 N23G35    29.92R
6HR MIN TEMP:  49; 6HR MAX TEMP:  54;

AINSWORTH      PTSUNNY   50  28  43 N28G33    29.91R
BROKEN BOW     MOSUNNY   52  26  36 N26G35    29.88S
6HR MIN TEMP:  50; 6HR MAX TEMP:  55;

O`NEILL        PTSUNNY   51  31  46 NW29G37   29.85S
ORD            CLOUDY    51  28  41 N25G40    29.85S
6HR MIN TEMP:  49; 6HR MAX TEMP:  55;

THEDFORD       PTSUNNY   51  27  38 N20G33    29.92S
$$

NEZ041-046>049-061>064-073>077-083>087-200100-
SOUTH CENTRAL NEBRASKA

CITY           SKY/WX    TMP DP  RH WIND       PRES   REMARKS
GRAND ISLAND   CLOUDY    52  28  39 N29G35    29.84R
6HR MIN TEMP:  50; 6HR MAX TEMP:  56;

AURORA         CLOUDY    52  32  46 N29G36    29.82S
HASTINGS       PTSUNNY   52  32  46 N22G32    29.84R
6HR MIN TEMP:  50; 6HR MAX TEMP:  56;

HEBRON         PTSUNNY   55  30  38 N21G28    29.80S
HOLDREGE       MOSUNNY   50  29  44 NW18G30   29.88R
KEARNEY *        N/A    N/A N/A N/A MISG        N/A
YORK           MOSUNNY   52  36  54 N10G24    29.80S
$$

NEZ011>018-030>034-042>045-200100-
NORTHEAST NEBRASKA

CITY           SKY/WX    TMP DP  RH WIND       PRES   REMARKS
ALBION         CLOUDY    51  30  44 N18G28    29.82S
BLAIR          CLOUDY    52  38  59 NW12G20   29.71S
COLUMBUS *     PTSUNNY   52  30  43 NW22G31   29.80S
FREMONT        CLOUDY    53  36  52 NW20G28   29.75S
TEKAMAH        CLOUDY    54  39  57 NW21G33   29.72S
6HR MIN TEMP:  50; 6HR MAX TEMP:  55; 6HR PCP:  0.20;

WAYNE          PTSUNNY   53  33  46 NW22G31   29.77S
$$

NEZ050>053-065>068-078-088>093-200100-
SOUTHEAST NEBRASKA

CITY           SKY/WX    TMP DP  RH WIND       PRES   REMARKS
LINCOLN        CLOUDY    55  34  45 NW23G31   29.76S
6HR MIN TEMP:  51; 6HR MAX TEMP:  56; 6HR PCP: TRACE;

OMAHA EPPLEY   CLOUDY    52  46  80 N8        29.71F
6HR MIN TEMP:  50; 6HR MAX TEMP:  52; 6HR PCP:  0.04;

BEATRICE       CLOUDY    53  36  53 NW21G26   29.76S
FALLS CITY     CLOUDY    51  42  71 NW13G24   29.72R
6HR MIN TEMP:  51; 6HR MAX TEMP:  55; 6HR PCP: TRACE;

NEBRASKA CITY  CLOUDY    51  39  64 N13       29.72S
PLATTSMOUTH    CLOUDY    51  41  69 NW12      29.71F
$$

NEZ044-045-051>053-067-200100-
OMAHA AREA

CITY           SKY/WX    TMP DP  RH WIND       PRES   REMARKS
OMAHA EPPLEY   CLOUDY    52  46  80 N8        29.71F
6HR MIN TEMP:  50; 6HR MAX TEMP:  52; 6HR PCP:  0.04;

BLAIR          CLOUDY    52  38  59 NW12G20   29.71S
FREMONT        CLOUDY    53  36  52 NW20G28   29.75S
MILLARD        CLOUDY    55  40  58 NW10G17   29.72S
OFFUTT AFB     CLOUDY    52  42  69 NW12      29.70F
PLATTSMOUTH    CLOUDY    51  41  69 NW12      29.71F
WAHOO          CLOUDY    53  34  49 NW18G26   29.74S
$$


USA.gov is the U.S. government's official web portal to all federal, state and local government web resources and services.